www.pogodaiklimat.ru

АРХИВ ПОГОДЫ в Цинциннати

Время (UTC), дата Ветер
(напр.,м/с)
 
Видим.   Явления Облачность Т
(С)
Тd
(С)
f
(%)
Тe
(С)
Тes
(С)
Комфортность

P
(гПа)

Po
(гПа)
Тmin
(С)
Tmax
(С)
R
(мм)
SD
(см)
01:52 22.03 З  13 км    10/10 570 м  +5.6  +2.2  79  -0  -0    1015.4  982.7         
02:52 22.03 З  10 км  мгла  10/10 510 м  +5.6  +2.2  79  -0  -0    1015.7  983.0         
03:52 22.03 З  16 км    10/10 990 м  +5.6  +0.6  70  +1  +1    1015.7  983.0         
04:52 22.03 З  16 км    10/10 1110 м  +5.0  +1.1  76  +1  +1    1015.3  982.7  +5.0  +7.2     
05:52 22.03 З  16 км    10/10 0 м  +5.0  +1.1  76  +1  +1    1015.0  982.3         
06:52 22.03 ЮЗ  14 км    8/8 1140 м  +4.4  +1.1  79  0  0    1014.4  981.7         
07:52 22.03 ЮЗ  13 км    2/2 1200 м  +3.3  +0.6  82  -2  -2    1013.5  980.7         
08:52 22.03 ЮЗ  14 км    ясно  +2.8  +0.6  85  -3  -3    1012.9  980.4         
09:52 22.03 ЮЗ  14 км    ясно  +2.8  0.0  82  -2  -2    1013.0  980.4         
10:52 22.03 З  14 км    ясно  +2.8  0.0  82  -3  -3    1013.2  980.7  +2.2  +5.0     
11:52 22.03 З  14 км    ясно  +3.3  +0.6  82  -2  -2    1013.0  980.4         
12:52 22.03 З  16 км    2/2 420 м  +5.6  +1.1  73  +1  +1    1013.3  980.7         
13:52 22.03 З  16 км    5/5 600 м  +7.2  +1.7  68  +2  +2    1013.4  980.7         
14:52 22.03 СЗ  9
{13} 
16 км    8/8 780 м  +8.9  +1.7  61  +4  +4    1014.3  981.7         
15:52 22.03 С  8
{13} 
16 км    8/8 990 м  +7.8  -0.6  55  +3  +4    1015.2  982.7         
16:52 22.03 СЗ  10
{14} 
16 км    8/8 1350 м  +9.4  -2.8  42  +5  +5    1015.8  983.3  +2.8  +9.4     
17:52 22.03 СЗ  8
{10} 
16 км    8/8 1500 м  +10.0  -2.8  41  +6  +7    1015.7  983.0         
18:52 22.03 СЗ  8
{13} 
16 км    8/8 1500 м  +10.6  -5.0  33  +7  +7    1016.3  983.7         
19:52 22.03 СЗ  9
{11} 
16 км    8/8 1500 м  +9.4  -5.0  36  +5  +5    1016.9  984.3         
20:52 22.03 СЗ  16 км    5/5 1800 м  +10.0  -5.0  34  +6  +7    1017.4  984.6         
21:52 22.03 СЗ  8
{11} 
16 км    2/2 1800 м  +9.4  -5.0  36  +6  +6    1018.2  985.3         
22:52 22.03 СЗ  16 км    2/2 1800 м  +7.8  -5.0  40  +4  +4    1019.0  986.3  +7.8  +11.1     
23:52 22.03 СЗ  16 км    2/2 1800 м  +6.1  -3.3  51  +2  +2    1020.0  986.9         
00:52 23.03 СЗ  7
{9} 
16 км    ясно  +5.6  -3.9  50  +1  +1    1020.9  987.9         
01:52 23.03 СЗ  6
{13} 
16 км    ясно  +4.4  -4.4  53  -1  -1    1021.9  988.9         
02:52 23.03 С  16 км    ясно  +3.3  -4.4  57  -1  -1    1022.0  988.9         
03:52 23.03 СЗ  16 км    ясно  +2.2  -4.4  62  -3  -3    1022.4  989.2         
04:52 23.03 С  16 км    ясно  +1.7  -4.4  64  -3  -3    1022.5  989.6  +1.7  +7.8     
05:52 23.03 С  16 км    ясно  +0.6  -4.4  69  -5  -5    1023.1  990.2         
06:52 23.03 З  16 км    ясно  -1.1  -5.0  75  -5  -5    1023.7  990.5         
07:52 23.03 С  16 км    ясно  -1.1  -5.0  75  -6  -6    1023.7  990.5         
08:52 23.03 СЗ  16 км    ясно  -1.1  -5.0  75  -4  -4    1024.3  991.2         
09:52 23.03 С  16 км    ясно  -2.2  -5.6  77  -7  -7    1024.7  991.5         
10:52 23.03 С  16 км    ясно  -1.7  -5.0  78  -5  -5    1025.4  992.2  -2.8  +1.7     
11:52 23.03 С  16 км    ясно  0.0  -4.4  72  -3  -3    1026.3  992.8         
12:52 23.03 нст  16 км    ясно  +2.2  -3.3  67  -0  +2    1027.1  993.8         
13:52 23.03 нст  16 км    ясно  +3.9  -2.8  62  +1  +5    1027.5  994.1         
14:52 23.03 нст  16 км    ясно  +6.1  -3.9  49  +5  +14  опасность
простуды 
1027.7  994.5         
15:52 23.03 ЮЗ  16 км    ясно  +8.3  -4.4  40  +6  +16  опасность
простуды 
1027.6  994.5         
16:52 23.03   16 км    ясно  +10.0  -4.4  36  +10  +28  опасность
простуды 
1027.1  993.8  -2.2  +10.0     
17:52 23.03 нст  16 км    2/0 7500 м
[верхняя] 
+11.7  -5.0  31  +12  +26  опасность
простуды 
1026.4  993.2         
18:52 23.03 нст  16 км    2/0 7500 м
[верхняя] 
+12.8  -6.1  26  +13  +26  опасность
простуды 
1025.8  992.8         
19:52 23.03 ЮВ  16 км    2/0 7500 м
[верхняя] 
+12.8  -6.1  26  +13  +22    1025.3  992.2         
20:52 23.03 Ю  16 км    2/0 7500 м
[верхняя] 
+12.8  -7.2  24  +12  +17    1025.1  992.2         
21:52 23.03 ЮЗ  16 км    5/0 4500 м
[средняя верхняя] 
+13.3  -10.6  18  +13  +15    1025.0  991.9         
22:52 23.03 Ю  16 км    5/0 4500 м
[средняя верхняя] 
+11.1  -10.0  22  +11  +11    1024.9  991.9  +9.4  +14.4     
23:52 23.03   16 км    5/0 7500 м
[верхняя] 
+10.0  -8.9  25  +10  +10    1024.9  991.9         
00:52 24.03 ЮВ  16 км    5/0 7500 м
[верхняя] 
+7.2  -7.8  34  +6  +6    1025.2  992.2         

 

Местоположение метеостанции Cincinnati / Northern Kentucky International Airport: широта 39.0431 долгота -84.6717 высота над уровнем моря 273 м.

В архиве по умолчанию представлена погода в Цинциннати за последние 1-2 суток. Обновление информации о фактической погоде в базе происходит ежечасно! Архивные данные за месяц целиком и за предыдущие месяцы Вы можете получить, выбрав интересующий диапазон дат из раскрывающегося списка и нажав кнопку "Ввод!".

Внимание! Архив погоды МЕТАР в базе сайта в настоящее время начинается c 1 января 2011 г. Нет смысла пытаться выбрать более раннюю дату.

Внимание! Время в таблицах - всемирное. Для получения местного времени необходимо прибавить поправку, которая в Цинциннати равна -5 ч.

Ветер - указаны скорость ветра в м/с и направление, откуда дует ветер: С - северный, СВ - северо-восточный, В - восточный, ЮВ - юго-восточный, Ю - южный, ЮЗ - юго-западный, З - западный, СЗ - северо-западный.
Видимость - горизонтальная дальность видимости в метрах или километрах. При видимости от 1 до 10 км при отсутствии осадков обычно наблюдается дымка, при ухудшении видимости до 1 км и менее - туман. В сухую погоду видимость может ухудшаться дымом, пылью или мглою.
Атмосферные явления - указаны явления, наблюдавшиеся в указанный момент времени.
Облачность - указаны через наклонную черту верхняя и нижняя облачность в баллах и высота нижней границы облаков в метрах. Внимание: облачность, как и прочие метеорологические величины в США измеряются автоматическими метеостанциями. Указанные значения в баллах носят условный характер и показывают процент времени, в течение которого, в среднем, лазерный луч высотомера отражался от облаков обратно.
T - Температура воздуха - температура, измеренная на высоте 2 м над землей.
Td - Температура точки росы - температура, при понижении до которой содержащийся в воздухе водяной пар достигнет насыщения.
f - Относительная влажность воздуха - влажноcть воздуха, измеренная на высоте 2 м над землей.
Te - Эффективная температура - температура, которую ощущает одетый по сезону человек в тени. Характеристика душности погоды. При расчете учитывается влияние влажности воздуха и скорости ветра на теплоощущения человека.
Tes - Эффективная температура на солнце - температура, которую ощущает человек, с поправкой на солнечный нагрев. Характеристика знойности погоды. Зависит от высоты солнца над горизонтом, облачности и скорости ветра. Ночью, в пасмурную погоду, а также при ветре 12 м/с и более поправка равна нулю.
P - Атмосферное давление - приведенное к уровню моря атмосферное давление.
Po - Атмосферное давление - измеренное на уровне метеостанции атмосферное давление.
Tmin - Минимальная температура - минимум температуры воздуха на высоте 2 м над землей.
Tmax - Максимальная температура - максимум температуры воздуха на высоте 2 м над землей.
R - Количество осадков - Количество выпавших осадков за 3 или 6 часов, мм.
SD - Снежный покров - Высота снежного покрова, см.